DateTimeUTC,F1_A11,F1_S11,BsB_S11,BsG_S11,BsR_S11,BbsB_S11,BbsG_S11,BbsR_S11,BaB_A11,BaG_A11,BaR_A11,Tu_S11,T_S11,Uu_S11,U_S11,P_S11,T1_A11
2021-10-18T13:00:00Z,00000200,21000000,,,,,,,0001.49,0000.97,0000.34,17.3,24.1,,00.0,0673.1,30.9
2021-10-18T13:01:00Z,00000200,21000000,,,,,,,0001.21,0001.24,0001.07,17.2,24.1,00.2,00.2,0673.1,30.9
2021-10-18T13:02:00Z,00000200,21000000,,,,,,,0001.28,0000.94,0001.32,17.2,24.1,00.3,00.2,0673.1,30.9
2021-10-18T13:03:00Z,00000200,61000000,,,,,,,0047.39,0043.70,0033.78,17.2,24.1,00.3,00.2,0673.1,30.9
2021-10-18T13:04:00Z,00000200,41000000,0009.47,0006.64,0003.81,0001.26,0001.42,0000.61,0057.58,0053.38,0042.75,17.5,23.9,00.6,00.4,0674.1,30.9
2021-10-18T13:05:00Z,00000200,01000000,0005.54,0004.20,0002.54,0001.53,0000.33,0000.22,0010.03,0008.98,0007.10,17.6,23.9,00.6,00.4,0674.2,31.0
2021-10-18T13:06:00Z,00000200,01000000,0005.95,0003.82,0002.38,0001.49,0000.76,0000.24,0006.30,0005.65,0004.50,17.7,23.9,00.6,00.4,0674.2,31.0
2021-10-18T13:07:00Z,00000200,01000000,0005.88,0003.99,0002.16,0000.61,0000.46,0000.07,0002.60,0003.02,0002.17,17.8,24.0,00.7,00.5,0674.2,31.0
2021-10-18T13:08:00Z,00000200,01000000,0005.48,0003.52,0002.26,0000.74,0000.51,0000.30,0003.57,0002.67,0002.20,17.9,24.0,00.6,00.4,0674.2,31.0
2021-10-18T13:09:00Z,00000200,01000000,0005.30,0003.36,0002.17,0000.76,0000.52,0000.25,0003.65,0004.04,0002.94,18.0,24.0,00.7,00.5,0674.3,31.0
2021-10-18T13:10:00Z,00000200,01000000,0005.11,0003.87,0002.35,-000.09,0000.68,0000.10,0002.44,0001.94,0001.70,18.0,24.1,00.6,00.4,0674.3,31.0
2021-10-18T13:11:00Z,00000200,01000000,0005.29,0003.78,0002.21,0000.42,0000.56,0000.15,0001.94,0001.27,0001.07,17.9,24.0,00.6,00.4,0674.3,31.0
2021-10-18T13:12:00Z,00000200,01000000,0004.34,0003.79,0002.04,0000.71,0000.43,0000.07,0001.21,0001.43,0000.81,17.8,24.0,00.4,00.3,0674.3,30.9
2021-10-18T13:13:00Z,00000200,01000000,0005.44,0003.97,0002.44,0000.33,0000.38,0000.52,0001.35,0001.19,0001.01,17.8,24.0,00.5,00.3,0674.3,30.9
2021-10-18T13:14:00Z,00000200,01000000,0004.25,0003.54,0002.22,-000.08,0000.64,0000.54,0001.59,0001.20,0000.77,17.7,24.0,00.5,00.4,0674.4,30.9
2021-10-18T13:15:00Z,00000200,01000000,0005.29,0003.56,0002.42,0000.20,0000.73,0000.33,0001.54,0001.12,0001.09,17.7,23.9,00.5,00.3,0674.4,30.9
2021-10-18T13:16:00Z,00000200,01000000,0005.86,0003.88,0002.03,0000.55,0000.74,0000.14,0001.48,0001.51,0001.22,17.7,23.9,00.5,00.3,0674.4,30.9
2021-10-18T13:17:00Z,00000200,01000000,0005.75,0004.15,0002.41,0000.41,0000.58,0000.11,0001.80,0001.79,0001.20,17.7,23.9,00.7,00.4,0674.4,31.0
2021-10-18T13:18:00Z,00000200,01000000,0005.22,0004.09,0002.38,0000.66,0000.55,0000.22,0001.83,0001.67,0001.31,17.8,23.9,00.6,00.4,0674.5,30.9
2021-10-18T13:19:00Z,00000200,01000000,0005.40,0004.13,0001.95,0000.40,0000.53,0000.10,0001.41,0001.35,0001.09,17.9,24.0,00.7,00.5,0674.5,31.0
2021-10-18T13:20:00Z,00000200,01000000,0005.21,0003.95,0002.33,0000.71,0000.52,0000.55,0001.43,0001.74,0000.70,17.9,24.0,00.6,00.4,0674.5,31.0
2021-10-18T13:21:00Z,00000200,01000000,0005.55,0004.07,0002.34,0000.56,0000.53,0000.54,0001.73,0000.88,0001.05,18.0,24.1,00.6,00.4,0674.6,31.0
2021-10-18T13:22:00Z,00000200,01000000,0005.24,0003.88,0002.50,0000.95,0000.68,0000.28,0000.91,0000.79,0000.49,18.1,24.1,00.6,00.4,0674.6,31.0
2021-10-18T13:23:00Z,00000200,01000000,0005.25,0003.33,0002.38,0000.43,0000.51,0000.32,0001.08,0001.39,0000.92,18.2,24.1,00.6,00.4,0674.6,31.0
2021-10-18T13:24:00Z,00000200,01000000,0005.12,0003.48,0002.03,0000.29,0000.40,0000.31,0001.71,0001.23,0001.22,18.2,24.2,00.5,00.4,0674.6,31.0
2021-10-18T13:25:00Z,00000200,01000000,0004.34,0004.09,0002.27,0000.62,0000.52,-000.08,0001.12,0001.28,0000.69,18.2,24.2,00.5,00.3,0674.6,31.0
2021-10-18T13:26:00Z,00000200,01000000,0005.08,0004.02,0002.23,0000.59,0000.41,0000.31,0001.11,0000.82,0000.79,18.1,24.2,00.3,00.2,0674.7,31.0
2021-10-18T13:27:00Z,00000200,01000000,0005.20,0003.70,0002.25,0000.25,0000.56,0000.61,0000.97,0000.81,0000.43,18.1,24.1,00.4,00.2,0674.7,31.0
2021-10-18T13:28:00Z,00000200,01000000,0004.98,0003.74,0002.16,0000.95,0000.43,-000.06,0000.92,0000.83,0000.72,18.0,24.1,00.2,00.1,0674.7,30.9
2021-10-18T13:29:00Z,00000200,01000000,0004.50,0003.73,0002.48,0001.09,0000.60,0000.17,0000.97,0001.01,0000.95,17.9,24.1,00.1,00.1,0674.7,30.9
2021-10-18T13:30:00Z,00000200,01000000,0005.54,0004.13,0002.33,0000.46,0000.72,0000.17,0001.12,0000.84,0000.21,17.9,24.1,00.1,00.0,0674.7,30.9
2021-10-18T13:31:00Z,00000200,01000000,0004.80,0003.47,0002.35,0000.45,0000.71,0000.23,0001.52,0000.93,0001.32,17.9,24.0,00.1,00.1,0674.7,30.9
2021-10-18T13:32:00Z,00000200,01000000,0005.34,0004.04,0002.56,0000.40,0000.90,0000.53,0001.32,0002.03,0000.89,17.9,24.0,00.1,00.1,0674.8,30.9
2021-10-18T13:33:00Z,00000200,01000000,0004.93,0004.11,0002.34,0000.81,0000.61,0000.13,0001.58,0001.16,0001.08,18.0,24.1,00.1,00.1,0674.8,31.0
2021-10-18T13:34:00Z,00000200,01000000,0004.79,0003.37,0002.33,0000.43,0000.57,0000.08,0001.29,0000.93,0001.10,18.0,24.1,00.1,00.0,0674.8,31.0
2021-10-18T13:35:00Z,00000200,01000000,0005.62,0003.77,0002.12,0000.47,0000.32,0000.27,0001.12,0001.36,0000.58,18.1,24.1,00.0,00.0,0674.9,31.0
2021-10-18T13:36:00Z,00000200,01000000,0005.36,0004.08,0002.10,0000.59,0000.33,0000.41,0001.30,0000.77,0000.45,18.2,24.2,00.0,00.0,0674.9,31.0
2021-10-18T13:37:00Z,00000200,01000000,0005.53,0003.77,0002.42,0000.68,0000.66,0000.42,0001.57,0001.43,0001.07,18.2,24.2,00.1,00.1,0674.9,31.0
2021-10-18T13:38:00Z,00000200,01000000,0007.21,0004.81,0002.95,0001.14,0000.78,0000.37,0001.55,0001.62,0001.51,18.2,24.3,00.1,00.0,0674.9,31.0
2021-10-18T13:39:00Z,00000200,01000000,0006.35,0004.53,0002.86,0001.01,0000.73,0000.03,0001.85,0001.75,0000.88,18.2,24.2,00.1,00.0,0674.9,31.0
2021-10-18T13:40:00Z,00000200,01000000,0006.87,0004.52,0002.52,0001.09,0000.63,0000.04,0001.87,0001.30,0001.34,18.1,24.2,00.1,00.1,0675.0,31.0
2021-10-18T13:41:00Z,00000200,01000000,0005.99,0004.65,0003.00,0000.42,0000.54,0000.23,0001.75,0001.69,0001.47,18.1,24.2,00.1,00.1,0675.0,31.0
2021-10-18T13:42:00Z,00000200,01000000,0006.36,0004.43,0003.17,0001.01,0000.81,0000.17,0001.26,0001.06,0000.30,18.0,24.2,00.2,00.1,0675.1,30.9
2021-10-18T13:43:00Z,00000200,01000000,0005.79,0004.83,0002.73,0000.13,0000.58,0000.62,0001.43,0001.52,0001.34,18.0,24.1,00.1,00.1,0675.1,30.9
2021-10-18T13:44:00Z,00000200,01000000,0005.84,0004.37,0002.77,0000.58,0000.57,0000.55,0001.42,0001.21,0000.92,17.9,24.1,00.2,00.1,0675.1,31.0
2021-10-18T13:45:00Z,00000200,01000000,0005.70,0004.10,0002.40,0000.66,0000.66,0000.31,0001.64,0001.10,0000.89,17.9,24.1,00.1,00.1,0675.1,31.0
2021-10-18T13:46:00Z,00000200,01000000,0005.24,0003.55,0002.12,0000.14,0000.52,0000.09,0001.19,0001.20,0000.79,17.9,24.0,00.2,00.1,0675.2,30.9
2021-10-18T13:47:00Z,00000200,01000000,0005.51,0003.89,0002.05,0000.54,0000.61,0000.11,0000.60,0000.67,0000.53,17.9,24.0,00.1,00.1,0675.3,30.9
2021-10-18T13:48:00Z,00000200,01000000,0004.92,0003.58,0002.29,0000.25,0000.63,0000.26,0001.28,0000.98,0000.80,17.9,24.1,00.1,00.0,0675.3,31.0
2021-10-18T13:49:00Z,00000200,01000000,0005.38,0004.18,0002.43,0001.00,0000.27,0000.49,0000.38,0000.80,0000.28,18.0,24.1,00.1,00.0,0675.3,31.0
2021-10-18T13:50:00Z,00000200,01000000,0005.49,0003.99,0002.63,0001.15,0000.43,0000.70,0000.98,0000.52,0000.79,18.1,24.2,,00.0,0675.4,31.0
2021-10-18T13:51:00Z,00000200,01000000,0006.29,0004.16,0002.91,0000.68,0000.83,0000.42,0000.26,0000.52,0000.29,18.2,24.2,,00.0,0675.5,31.0
2021-10-18T13:52:00Z,00000200,01000000,0006.21,0003.76,0002.77,0000.73,0000.33,0000.07,0001.20,0000.64,0000.86,18.3,24.2,,00.0,0675.5,31.0
2021-10-18T13:53:00Z,00000200,01000000,0007.04,0004.29,0002.56,0000.71,0000.98,0000.44,0000.68,0001.07,0000.71,18.3,24.3,,00.0,0675.6,31.0
2021-10-18T13:54:00Z,00000200,01000000,0004.50,0003.78,0002.42,0000.50,0000.46,0000.03,0001.33,0001.13,0000.61,18.3,24.3,,00.0,0675.6,31.0
2021-10-18T13:55:00Z,00000200,01000000,0005.52,0004.11,0002.18,0000.81,0000.49,0000.40,0001.71,0000.72,0000.78,18.3,24.3,,00.0,0675.6,31.0
2021-10-18T13:56:00Z,00000200,01000000,0007.01,0004.68,0002.53,0000.43,0000.76,0000.46,0000.99,0001.58,0001.21,18.2,24.3,,00.0,0675.6,31.0
2021-10-18T13:57:00Z,00000200,41000000,,,,,,,0002.57,0002.07,0001.40,18.2,24.3,,00.0,0675.6,31.0
2021-10-18T13:58:00Z,00000200,61000000,,,,,,,-000.15,0000.18,-000.42,17.9,24.4,,00.0,0674.7,31.0
2021-10-18T13:59:00Z,00000200,21000000,,,,,,,-000.35,-000.57,-000.32,17.8,24.5,,00.0,0674.7,31.0
